User: anonymous   Login
Location: Fort Wayne
(41.1310°N, 85.1290°W)
Time: 09:57:14
(UTC-04:00)
Language:

COSMOS 2406 - Orbit

View from above orbital plane
View from above orbital plane
View from above satellite
View from above satellite

Ground track
Ground track

The orbit data is extracted from the following two-line orbital elements,

1 28352U 04021A   15241.05566381  .00000317  00000-0  20111-3 0  9993
2 28352 071.0008 058.6232 0014662 004.5202 133.7720 14.11413189577988
Epoch (UTC): 29 August 2015 01:20:09
Eccentricity: 0.0014662
inclination: 71.0008°
perigee height: 844 km
apogee height: 865 km
right ascension of ascending node: 58.6232°
argument of perigee: 4.5202°
revolutions per day: 14.11413189
mean anomaly at epoch: 133.7720°
orbit number at epoch: 57798

The dashed part of the orbit path shows where the satellite is in the earth's shadow,  

DLR